[[{"header":{"parameterUnit":"m.s-1","parameterCategory":1,"la1":30.2991,"la2":30.254,"lo1":-89.0895,"lo2":-89.0444,"dy":0.0017,"dx":0.0017,"nx":28,"ny":28,"refTime":"2025-07-17T09:00:00:Z","depth":0,"parameterNumber":2,"parameterNumberName":"U-component_of_WINDS"},"data":[0,0,0,0,0,0,0,0,0,0,0,0,0,0,0,0,0,0,0,0,0,0,0,0,0,0,0,0,0,0,0,0,0,0,0,0,0,0,0,0,0,0,0,0,0,0,0,0,0,0,0,0,0,0,0,0,0,0,0.1076,0.1074,0,0.0961,0.096,0.0958,0.0855,0.0854,0.0853,0.0851,0.0732,0.073,0.0728,0,0,0,0,0,0,0,0,0,0,0,0,0,0.1202,0.12,0.1076,0.1074,0.1073,0.0961,0.096,0.0958,0.0855,0.0854,0.0852,0.0851,0.0732,0.073,0.0728,0,0,0,0,0,0,0,0,0,0,0,0,0,0.1123,0.12,0.1076,0.1008,0.1001,0.0962,0.096,0.0958,0.0856,0.0854,0.0852,0.085,0.0733,0.073,0.0727,0.0745,0,0,0.0718,0.0717,0,0,0,0,0,0,0,0,0.1128,0.1119,0.102,0.1013,0.1005,0.092,0.096,0.0886,0.0856,0.0911,0.0851,0.0849,0.0796,0.0788,0.077,0.0739,0.0734,0.0718,0.0716,0.0714,0.0714,0,0,0,0,0,0,0,0.1133,0.1123,0.103,0.1018,0.1009,0.0982,0.0969,0.0946,0.0865,0.0906,0.0898,0.0886,0.0791,0.0773,0.0766,0.0733,0.0718,0.0715,0.0713,0.0712,0.0708,0.0709,0,0,0,0,0,0,0.115,0.1128,0.1034,0.1027,0.1063,0.0981,0.0967,0.0949,0.0865,0.085,0.0888,0.0882,0.0779,0.077,0.0762,0.0775,0.0714,0.0712,0.071,0.0706,0.0708,0.071,0,0,0,0,0,0,0.1153,0.1142,0.1038,0.1075,0.106,0.0981,0.0963,0.0948,0.093,0.0851,0.0836,0.0884,0.0778,0.0766,0.0749,0.077,0.071,0.0707,0.0704,0.0707,0.0709,0.0804,0,0,0,0,0,0,0.1157,0.1144,0.1151,0.1076,0.1059,0.103,0.0964,0.0947,0.0925,0.0916,0.0844,0.083,0.0775,0.0755,0.0747,0.0764,0.0705,0.0702,0.0705,0.0708,0.0798,0.0809,0.0818,0,0,0,0,0,0.1162,0.1182,0.1152,0.1141,0.1066,0.1031,0.1021,0.0958,0.0927,0.0932,0.0882,0.0832,0.0769,0.0754,0.0744,0.0761,0.07,0.0704,0.0708,0.0794,0.0807,0.0818,0,0,0,0,0,0,0.1261,0.1171,0.1137,0.1134,0.1091,0.1014,0.1019,0.0974,0.0938,0.0931,0.0854,0.0838,0.083,0.0794,0.0778,0.0772,0.0728,0.073,0.0796,0.0808,0.0818,0.0827,0.0702,0,0,0,0,0,0.1283,0.1263,0.1185,0.119,0.117,0.1099,0.1081,0.1036,0.0988,0.0969,0.0917,0.0872,0.0841,0.0823,0.0791,0.0793,0.0774,0.0799,0.0809,0.0818,0.082,0.0816,0.0826,0.0723,0.0723,0.0723,0,0,0.1327,0.1275,0.1268,0.1209,0.117,0.115,0.1084,0.1066,0.105,0.0966,0.0947,0.0907,0.0851,0.0844,0.0838,0.0813,0.0845,0.0823,0.083,0.0828,0.0822,0.0831,0.084,0.0725,0.0725,0.0724,0,0,0.1397,0.1357,0.1356,0.1318,0.1261,0.1213,0.1213,0.1142,0.1112,0.1092,0.1028,0.1007,0.0957,0.0919,0.0893,0.0947,0.09,0.0939,0.0991,0.0988,0.0996,0.1003,0.1021,0.1028,0.0942,0.0942,0.0942,0,0.1459,0.1427,0.1361,0.1346,0.1321,0.1245,0.1242,0.1208,0.1143,0.1127,0.1101,0.1035,0.0992,0.0973,0.0986,0.0968,0.0964,0.0946,0.1001,0.1007,0.1012,0.1028,0.1035,0.0947,0.0946,0.0946,0.0945,0,0.1505,0.1484,0.149,0.1429,0.1405,0.1396,0.1327,0.131,0.1267,0.1221,0.12,0.1146,0.11,0.1092,0.105,0.1067,0.1054,0.1015,0.0969,0.1028,0.1042,0.1047,0.0954,0.0952,0.0951,0.0949,0,0,0.1635,0.1537,0.154,0.151,0.1441,0.1422,0.141,0.1365,0.1352,0.1309,0.1295,0.1253,0.1217,0.1187,0.114,0.1138,0.1182,0.1099,0.1096,0.1115,0.1195,0.1224,0.1232,0.115,0.1151,0.1152,0.1199,0,0.1693,0.1666,0.1605,0.1597,0.1575,0.1502,0.149,0.1445,0.1402,0.1376,0.1328,0.1299,0.1254,0.1235,0.123,0.1178,0.1197,0.1174,0.1135,0.1134,0.115,0.1239,0.127,0.1317,0.1204,0.1205,0.1205,0,0.1756,0.1718,0.1708,0.1638,0.1627,0.1618,0.1571,0.1548,0.1495,0.1463,0.1431,0.1378,0.1358,0.1316,0.1287,0.1273,0.1253,0.1225,0.1225,0.1219,0.1173,0.1234,0.1331,0.1338,0.1213,0.1213,0.1212,0,0.185,0.1796,0.1783,0.176,0.1679,0.1673,0.1639,0.1584,0.1561,0.152,0.1504,0.1461,0.1438,0.1405,0.1342,0.1317,0.1319,0.1272,0.1291,0.1293,0.1294,0.1295,0.1389,0.1284,0.1284,0.1284,0.1283,0,0.192,0.1916,0.1823,0.1815,0.1808,0.1737,0.1732,0.169,0.1642,0.1623,0.1557,0.154,0.1458,0.1432,0.1382,0.1364,0.1354,0.1327,0.1314,0.1332,0.1336,0.1318,0.1313,0.1285,0.1285,0.1285,0.1284,0,0.2023,0.1961,0.1941,0.1866,0.1846,0.1845,0.1779,0.1767,0.1719,0.1696,0.1686,0.1611,0.1576,0.151,0.1457,0.1423,0.1416,0.1393,0.1434,0.1426,0.1448,0.1446,0.1532,0.1539,0.1432,0.1433,0.1434,0,0.2072,0.2067,0.1991,0.1974,0.1942,0.1915,0.1891,0.1821,0.1798,0.1736,0.1732,0.1692,0.1656,0.1603,0.1543,0.1501,0.1476,0.1509,0.1469,0.1487,0.1475,0.1475,0.1474,0.1518,0.1519,0.1521,0.1522,0,0.2163,0.2132,0.2101,0.2058,0.2032,0.1994,0.1954,0.1943,0.1863,0.184,0.1804,0.1776,0.1721,0.1682,0.1631,0.1593,0.1544,0.1535,0.1536,0.1555,0.1578,0.1565,0.1457,0.1533,0.1532,0.1531,0.153,0.153,0.2239,0.2231,0.2176,0.2142,0.2104,0.2067,0.2052,0.2003,0.1972,0.1922,0.1882,0.1848,0.1793,0.172,0.1685,0.1657,0.1633,0.1637,0.1637,0.1639,0.1646,0.1584,0.1647,0.1647,0.1647,0.1646,0.1646,0,0.2326,0.2286,0.2257,0.2202,0.2175,0.2132,0.2084,0.2064,0.2036,0.1989,0.1955,0.1912,0.1873,0.181,0.1765,0.1755,0.173,0.1745,0.1745,0.1736,0.167,0.1672,0.1765,0.1765,0.1765,0.1765,0.1765,0.1765,0.2368,0.2351,0.2314,0.2277,0.2237,0.2205,0.2181,0.2146,0.2108,0.2064,0.2031,0.1991,0.1936,0.1887,0.1849,0.1831,0.1817,0.1838,0.1813,0.1752,0.1741,0.1731,0.1732,0.1836,0.1836,0.1882,0.1882,0.1882]},{"header":{"parameterUnit":"m.s-1","parameterCategory":1,"la1":30.2991,"la2":30.254,"lo1":-89.0895,"lo2":-89.0444,"dy":0.0017,"dx":0.0017,"nx":28,"ny":28,"refTime":"2025-07-17T09:00:00:Z","depth":0,"parameterNumber":3,"parameterNumberName":"V-component_of_WINDS"},"data":[0,0,0,0,0,0,0,0,0,0,0,0,0,0,0,0,0,0,0,0,0,0,0,0,0,0,0,0,0,0,0,0,0,0,0,0,0,0,0,0,0,0,0,0,0,0,0,0,0,0,0,0,0,0,0,0,0,0,6.7216,6.7219,0,6.7485,6.7488,6.7491,6.7515,6.7512,6.7509,6.7507,6.7777,6.7786,6.7796,0,0,0,0,0,0,0,0,0,0,0,0,0,6.6717,6.6726,6.7216,6.7219,6.7223,6.7484,6.7488,6.7491,6.7515,6.7512,6.7508,6.7505,6.7773,6.7785,6.7797,0,0,0,0,0,0,0,0,0,0,0,0,0,6.6954,6.6729,6.7215,6.7266,6.7273,6.7483,6.7488,6.7492,6.7516,6.7512,6.7508,6.7504,6.7769,6.7784,6.7798,6.7974,0,0,6.7843,6.785,0,0,0,0,0,0,0,0,6.694,6.6972,6.7255,6.7263,6.7272,6.7462,6.7411,6.7654,6.7517,6.7424,6.7506,6.7502,6.7675,6.7697,6.7757,6.7987,6.7999,6.7845,6.7854,6.786,6.7864,0,0,0,0,0,0,0,6.6924,6.6961,6.7322,6.7259,6.7269,6.7273,6.7302,6.7457,6.757,6.7432,6.7434,6.7466,6.7679,6.7743,6.7763,6.8003,6.7844,6.7857,6.7867,6.7872,6.8387,6.8391,0,0,0,0,0,0,6.6899,6.6947,6.7314,6.733,6.7092,6.7286,6.7318,6.7405,6.7568,6.7589,6.7469,6.7466,6.7719,6.7746,6.7773,6.7988,6.786,6.7874,6.7882,6.8382,6.8388,6.8393,0,0,0,0,0,0,6.6888,6.6931,6.7303,6.7139,6.7187,6.7299,6.7396,6.7413,6.7477,6.7597,6.7616,6.7514,6.7717,6.7752,6.7924,6.7997,6.788,6.7894,6.8376,6.8384,6.839,6.8419,0,0,0,0,0,0,6.6874,6.6927,6.6997,6.7141,6.7196,6.7451,6.7401,6.7421,6.7503,6.7501,6.7644,6.7664,6.7716,6.7901,6.7938,6.8015,6.7905,6.837,6.838,6.8388,6.8412,6.8426,6.8439,0,0,0,0,0,6.6856,6.6994,6.7001,6.7045,6.7286,6.7456,6.7487,6.7546,6.7509,6.7578,6.7655,6.7659,6.7983,6.7919,6.7961,6.8043,6.8366,6.8377,6.8387,6.8406,6.8424,6.8438,0,0,0,0,0,0,6.6856,6.7014,6.7023,6.7213,6.7321,6.7459,6.755,6.7563,6.7683,6.7676,6.7743,6.7775,6.7943,6.8011,6.7936,6.822,6.817,6.819,6.817,6.8188,6.8201,6.8181,6.7918,0,0,0,0,0,6.6878,6.7005,6.7136,6.729,6.7344,6.7437,6.7513,6.755,6.7663,6.7709,6.7798,6.7906,6.8032,6.8114,6.8237,6.8422,6.8452,6.8499,6.8512,6.8522,6.8538,6.8638,6.866,6.8429,6.8429,6.8428,0,0,6.6925,6.7027,6.7103,6.7293,6.738,6.7507,6.7475,6.7612,6.7706,6.7729,6.7896,6.7965,6.809,6.8268,6.8351,6.833,6.8609,6.8536,6.8544,6.8554,6.8651,6.8673,6.8692,6.8436,6.8435,6.8434,0,0,6.7075,6.7167,6.7304,6.7392,6.7526,6.7587,6.7619,6.7756,6.7803,6.7972,6.7991,6.8102,6.8319,6.8406,6.8479,6.8659,6.8667,6.8697,6.8766,6.8863,6.8881,6.8897,6.8959,6.8981,6.8713,6.8713,6.8713,0,6.7116,6.7311,6.7372,6.7508,6.7589,6.7617,6.7754,6.7837,6.8002,6.8057,6.803,6.8301,6.8387,6.8585,6.8628,6.8688,6.8725,6.8681,6.8874,6.8891,6.8907,6.8966,6.899,6.8716,6.8715,6.8715,6.8715,0,6.7353,6.7487,6.7582,6.7742,6.7834,6.797,6.805,6.8135,6.8162,6.8225,6.8394,6.8499,6.8642,6.8691,6.872,6.8893,6.8874,6.886,6.8811,6.8931,6.8988,6.9011,6.8719,6.8718,6.8718,6.8717,0,0,6.7512,6.7703,6.7737,6.7808,6.7956,6.806,6.8195,6.8336,6.8407,6.8519,6.8633,6.8814,6.8801,6.8883,6.8921,6.9006,6.9138,6.8981,6.8985,6.9005,6.9332,6.9341,6.9366,6.9144,6.9149,6.9153,6.9321,0,6.7678,6.7922,6.798,6.8188,6.831,6.8336,6.8454,6.8555,6.8617,6.8728,6.8795,6.8921,6.8896,6.8945,6.9031,6.9104,6.9205,6.9093,6.9248,6.9253,6.9215,6.9397,6.9407,6.9561,6.9344,6.9347,6.935,0,6.7904,6.8022,6.8242,6.8371,6.8424,6.853,6.8661,6.8768,6.8883,6.8921,6.9012,6.9041,6.9179,6.9124,6.9315,6.9237,6.9304,6.9349,6.9356,6.9372,6.9308,6.9415,6.9612,6.9634,6.9386,6.9384,6.9381,0,6.7995,6.8209,6.8367,6.8428,6.8583,6.8656,6.8723,6.8834,6.8914,6.9028,6.908,6.9209,6.9279,6.9377,6.9439,6.9393,6.9623,6.9574,6.9657,6.9655,6.9704,6.97,6.9911,6.9749,6.9749,6.9748,6.9748,0,6.8173,6.8306,6.841,6.8508,6.8656,6.872,6.8865,6.8932,6.903,6.9139,6.9169,6.927,6.9346,6.9457,6.9505,6.9654,6.9686,6.9719,6.973,6.9716,6.9711,6.9759,6.975,6.9754,6.9753,6.9752,6.9751,0,6.83,6.8375,6.855,6.8681,6.8717,6.8821,6.8932,6.9027,6.9088,6.9225,6.9261,6.9356,6.9488,6.9559,6.9724,6.9757,6.9923,6.9929,6.9884,6.9889,6.9967,6.9958,7.0216,7.0252,7.0067,7.0069,7.007,0,6.8408,6.8511,6.8653,6.8729,6.8798,6.8919,6.9001,6.9066,6.9149,6.9286,6.9363,6.9496,6.9607,6.9815,6.9898,7.0024,7.0032,7.0114,7.0051,7.0032,7.0031,7.0023,7.0032,7.0124,7.0126,7.0127,7.0128,0,6.8591,6.8622,6.8739,6.8869,6.8965,6.907,6.9174,6.9233,6.9315,6.9407,6.9542,6.9628,6.9795,6.9927,7.0058,7.0125,7.014,7.0147,7.0173,7.0159,7.0128,7.0143,6.9912,7.0141,7.014,7.0139,7.0138,7.0138,6.8711,6.8802,6.8916,6.9044,6.9129,6.9224,6.9318,6.9391,6.9505,6.9648,6.9679,6.9821,6.9929,7.0108,7.0178,7.0289,7.0272,7.031,7.0319,7.0327,7.0329,7.0111,7.0313,7.0313,7.0313,7.0312,7.0312,0,6.8893,6.8967,6.9085,6.9228,6.9328,6.9334,6.9448,6.9531,6.9656,6.9757,6.9864,7.0018,7.0145,7.0237,7.0365,7.0436,7.0445,7.0467,7.0462,7.0476,7.0338,7.0302,7.0457,7.0457,7.0457,7.0457,7.0457,7.0457,6.9,6.9154,6.9199,6.9393,6.9466,6.9606,6.9671,6.9758,6.9838,7.0009,7.0114,7.0174,7.027,7.0405,7.0521,7.0544,7.0589,7.061,7.0634,7.0502,7.0487,7.0472,7.0438,7.062,7.062,7.0764,7.0765,7.0766]}]]